Home   Weather   48°29'N, 9°12'E   Past weeks
Flag for Germany

Past Weather in 48°29'N, 9°12'E, Germany — Yesterday and Last 2 Weeks

Now
50 °F

Clear.


Feels Like: 50 °F
Forecast: 64 / 49 °F
Wind: 1 mph from North

Location: Stuttgart-Echterdingen

Current Time: Oct 23, 2019 at 11:18:03 pm

Latest Report: Oct 23, 2019 at 10:50 pm


Visibility: 10 mi

Pressure: 29.86 "Hg

Humidity: 94%

Dew Point: 48 °F

Location of 48°29'N, 9°12'ELocation

Past Weather in 48°29'N, 9°12'E — Graph

°F

48°29'N, 9°12'E Temperature Yesterday

Maximum temperature yesterday: 61 °F (at 4:50 pm)
Minimum temperature yesterday: 48 °F (at 5:20 am)
Average temperature yesterday: 53 °F

High & Low Weather Summary for the Past Weeks

 TemperatureHumidityPressure
High79 °F (Oct 13, 3:20 pm)100% (Oct 10, 5:20 am)30.27 "Hg (Oct 10, 5:20 am)
Low41 °F (Oct 11, 6:20 am)39% (Oct 13, 4:20 pm)29.71 "Hg (Oct 15, 1:50 pm)
Average56 °F83%29.97 "Hg
* Reported Oct 8 10:20 pm — Oct 23 10:20 pm, 48°29'N, 9°12'E. Weather by CustomWeather, © 2019

Note: Actual official high and low records may vary slightly from our data, if they occured in-between our weather recording intervals... More about our weather records

Advertising

48°29'N, 9°12'E Weather History for the Previous 24 Hours

Scroll right to see more
 ConditionsComfort  
Time TempWeatherWind HumidityBarometerVisibility
10:20 pm
Wed, Oct 23
50 °FClear.2 mph94%29.86 "Hg10 mi
9:50 pm50 °FClear.2 mph94%29.86 "Hg10 mi
9:20 pm50 °FClear.2 mph94%29.86 "Hg10 mi
8:50 pm50 °FClear.1 mph100%29.89 "Hg10 mi
8:20 pm50 °FClear.2 mph94%29.89 "Hg10 mi
7:50 pm50 °FClear.5 mph94%29.89 "Hg10 mi
7:20 pm52 °FClear.7 mph94%29.92 "Hg10 mi
6:50 pm52 °FPassing clouds.5 mph94%29.92 "HgN/A
6:20 pm55 °FClear.6 mph82%29.92 "Hg10 mi
5:50 pm57 °FPassing clouds.6 mph82%29.92 "HgN/A
5:20 pm57 °FSunny.6 mph82%29.92 "Hg10 mi
4:50 pm59 °FPassing clouds.6 mph77%29.92 "HgN/A
4:20 pm61 °FPassing clouds.8 mph72%29.92 "HgN/A
3:50 pm63 °FPassing clouds.7 mph68%29.92 "HgN/A
3:20 pm63 °FPassing clouds.7 mph73%29.95 "HgN/A
2:50 pm63 °FPassing clouds.7 mph73%29.95 "HgN/A
2:20 pm63 °FPassing clouds.6 mph68%29.98 "HgN/A
1:50 pm63 °FPassing clouds.6 mph73%29.98 "HgN/A
1:20 pm61 °FPassing clouds.6 mph77%29.98 "HgN/A
12:50 pm59 °FPassing clouds.5 mph77%30.01 "HgN/A
12:20 pm59 °FCool.5 mph77%30.01 "HgN/A
11:50 am55 °FScattered clouds.5 mph88%30.01 "HgN/A
11:20 am54 °FScattered clouds.6 mph94%30.01 "Hg5 mi
10:50 am52 °FBroken clouds.2 mph100%30.01 "Hg3 mi
10:20 am52 °FBroken clouds.2 mph94%30.04 "Hg1 mi
9:50 am52 °FBroken clouds.2 mph94%30.04 "Hg1 mi
9:20 am50 °FBroken clouds.1 mph100%30.04 "Hg3 mi
8:50 am48 °FBroken clouds.1 mph100%30.04 "Hg3 mi
8:20 am48 °FBroken clouds.2 mph100%30.04 "Hg2 mi
7:50 am46 °FFog.1 mph100%30.04 "Hg0 mi
7:20 am46 °FFog.1 mph100%30.04 "Hg0 mi
6:50 am46 °FFog.1 mph100%30.04 "Hg0 mi
6:20 am46 °FFog.1 mph100%30.07 "Hg0 mi
5:50 am46 °FFog.No wind100%30.07 "Hg0 mi
5:20 am46 °FFog.1 mph100%30.07 "Hg0 mi
4:50 am45 °FFog.1 mph100%30.07 "Hg1 mi
4:20 am45 °FSleet. Overcast.1 mph100%30.07 "Hg1 mi
3:50 am46 °FSleet. Overcast.1 mph100%30.09 "Hg1 mi
3:20 am48 °FFog.2 mph100%30.09 "Hg0 mi
2:50 am48 °FFog.1 mph100%30.09 "Hg0 mi
2:20 am48 °FFog.2 mph100%30.12 "Hg0 mi
1:50 am46 °FCool.1 mph100%30.12 "Hg1 mi
1:20 am48 °FFog.1 mph100%30.12 "Hg3 mi
12:50 am46 °FPassing clouds.1 mph93%30.15 "Hg5 mi
12:20 am48 °FLight fog.No wind100%30.15 "Hg6 mi
11:50 pm
Tue, Oct 22
50 °FLight fog.3 mph100%30.18 "HgN/A
11:20 pm50 °FLight fog.3 mph100%30.18 "HgN/A
Weather by CustomWeather, © 2019

See weather overview